Tracking 19570 objects as of 21-Feb-2019
HD Live streaming from Space Station
objects crossing your sky now

ATLAS CENTAUR R/B

Track ATLAS CENTAUR R/B now!


NORAD ID: 7545
Int'l Code: 1974-093B
Perigee: 530.3 km
Apogee: 36,498.8 km
Inclination: 25.6 °
Period: 651.2 minutes
Semi major axis: 24885 km
RCS: 16.7818 m2 (large)
Launch date: November 21, 1974
Source: United States (US)
Launch site: AIR FORCE EASTERN TEST RANGE (AFETR)

Note: This is a ROCKET BODY
aabbcc
Your satellite tracking list
Your tracking list is empty




NASA's NSSDC Master Catalog

Two Line Element Set (TLE):
1  7545U 74093B   19052.43209071  .00000065  00000-0  63525-3 0  9992
2  7545  25.5800 228.2259 7226776 255.3726  20.9724  2.21147127227721
Source of the keplerian elements: AFSPC